Antalya, Turkey

2:26 AM EET on February 07, 2016 (GMT +0200)
Antalya

Weather History for LTAI - January, 2013

Change the Weather History Date:

Tuesday, January 22, 2013

  Actual Average Record
Temperature  
Mean Temperature 56 °F -  
Max Temperature 65 °F 59 °F 66 °F (2009)
Min Temperature 48 °F 43 °F 33 °F (2000)
Degree Days  
Heating Degree Days 8    
Growing Degree Days 6 (Base 50)    
Moisture  
Dew Point 53 °F    
Average Humidity 91    
Maximum Humidity 100    
Minimum Humidity 60    
Precipitation  
Precipitation 0.94 in 0.27 in - ()
Sea Level Pressure  
Sea Level Pressure 29.91 in    
Wind  
Wind Speed 5 mph ()    
Max Wind Speed 12 mph    
Max Gust Speed -    
Visibility 5.2 miles    
Events Rain , Thunderstorm    
Averages and records for this station are not official NWS values.
T = Trace of Precipitation, MM = Missing Value Source: Averaged Metar Reports

Daily Weather History Graph

Daily Weather History Graph

Search for Another Location

Airport or City:

Trip Planner

Search our weather history database for the weather conditions in past years. The results will help you decide how hot, cold, wet, or windy it might be!

Date:

Astronomy

Jan. 22, 2013 Rise Set
Actual Time 7:06 AM EET 5:11 PM EET
Civil Twilight 6:38 AM EET 5:39 PM EET
Nautical Twilight 6:06 AM EET 6:11 PM EET
Astronomical Twilight 5:35 AM EET 6:41 PM EET
Moon 1:20 PM EET (1/22) 3:09 AM EET (1/22)
Length of Visible Light 11h 01m
Length of Day
10h 05m
Waxing Gibbous, 80% of the Moon is Illuminated
Jan 22
Waxing Gibbous
Jan 27
Full
Feb 3
Last Quarter
Feb 10
New
Feb 17
First Quarter

Hourly Weather History & Observations

Time (EET) Temp. Dew Point Humidity Pressure Visibility Wind Dir Wind Speed Gust Speed Precip Events Conditions
12:20 AM 53.6 °F 53.6 °F 100% 30.01 in 6.2 mi North 4.6 mph - N/A   Mostly Cloudy
12:50 AM 53.6 °F 51.8 °F 94% 29.98 in 6.2 mi NE 5.8 mph - N/A   Mostly Cloudy
1:20 AM 53.6 °F 51.8 °F 94% 29.98 in 6.2 mi SE 3.5 mph - N/A   Mostly Cloudy
1:50 AM 51.8 °F 51.8 °F 100% 29.98 in 6.2 mi Calm Calm - N/A   Mostly Cloudy
2:00 AM 52 °F 51 °F 95% 29.96 in 6 mi Calm Calm - -   Partly Cloudy
2:20 AM 53.6 °F 51.8 °F 94% 29.95 in 6.2 mi Variable 2.3 mph - N/A   Mostly Cloudy
2:50 AM 55.4 °F 53.6 °F 94% 29.95 in 6.2 mi SE 5.8 mph - N/A   Mostly Cloudy
3:20 AM 53.6 °F 51.8 °F 94% 29.95 in 6.2 mi ESE 4.6 mph - N/A   Mostly Cloudy
3:50 AM 51.8 °F 51.8 °F 100% 29.95 in 6.2 mi North 6.9 mph - N/A   Mostly Cloudy
4:20 AM 51.8 °F 51.8 °F 100% 29.92 in 6.2 mi North 5.8 mph - N/A   Mostly Cloudy
4:50 AM 50.0 °F 48.2 °F 94% 29.92 in 6.2 mi NW 3.5 mph - N/A   Mostly Cloudy
5:20 AM 50.0 °F 50.0 °F 100% 29.92 in 6.2 mi North 5.8 mph - N/A   Mostly Cloudy
5:50 AM 50.0 °F 48.2 °F 94% 29.92 in 6.2 mi South 1.2 mph - N/A   Mostly Cloudy
6:20 AM 50.0 °F 50.0 °F 100% 29.92 in 6.2 mi Variable 1.2 mph - N/A   Mostly Cloudy
6:50 AM 48.2 °F 48.2 °F 100% 29.92 in 6.2 mi Variable 2.3 mph - N/A   Mostly Cloudy
7:20 AM 48.2 °F 48.2 °F 100% 29.89 in 6.2 mi Variable 1.2 mph - N/A   Mostly Cloudy
7:50 AM 50.0 °F 48.2 °F 94% 29.89 in 6.2 mi North 4.6 mph - N/A   Mostly Cloudy
8:00 AM 50 °F 49 °F 97% 29.89 in 6 mi North 4.6 mph - -   Mostly Cloudy
8:20 AM 53.6 °F 51.8 °F 94% 29.89 in 6.2 mi North 6.9 mph - N/A   Mostly Cloudy
8:50 AM 57.2 °F 55.4 °F 94% 29.89 in 6.2 mi NNW 4.6 mph - N/A   Mostly Cloudy
9:20 AM 62.6 °F 55.4 °F 77% 29.89 in 6.2 mi Variable 3.5 mph - N/A   Mostly Cloudy
9:50 AM 62.6 °F 55.4 °F 77% 29.89 in 6.2 mi SSW 11.5 mph - N/A   Mostly Cloudy
10:20 AM 64.4 °F 55.4 °F 73% 29.89 in 6.2 mi SSW 9.2 mph - N/A   Mostly Cloudy
10:50 AM 66.2 °F 51.8 °F 60% 29.89 in 6.2 mi SSW 8.1 mph - N/A   Mostly Cloudy
11:20 AM 64.4 °F 51.8 °F 64% 29.89 in 6.2 mi SSW 6.9 mph - N/A   Mostly Cloudy
11:50 AM 62.6 °F 51.8 °F 68% 29.89 in 6.2 mi SSW 5.8 mph - N/A   Mostly Cloudy
12:20 PM 64.4 °F 51.8 °F 64% 29.86 in 6.2 mi South 3.5 mph - N/A   Mostly Cloudy
12:50 PM 64.4 °F 51.8 °F 64% 29.86 in 6.2 mi SSE 3.5 mph - N/A   Mostly Cloudy
1:20 PM 59.0 °F 53.6 °F 82% 29.86 in 6.2 mi WNW 8.1 mph - N/A   Mostly Cloudy
1:50 PM 57.2 °F 55.4 °F 94% 29.86 in 2.5 mi West 9.2 mph - N/A Rain Light Rain Showers
2:00 PM 58 °F 56 °F 89% 29.86 in 2 mi West 9.2 mph - - Rain Light Rain Showers
2:20 PM 57.2 °F 55.4 °F 94% 29.86 in 0.7 mi West 10.4 mph - N/A Rain , Thunderstorm Heavy Thunderstorms and Rain
2:50 PM 59.0 °F 55.4 °F 88% 29.86 in 0.7 mi SW 10.4 mph - N/A Rain , Thunderstorm Heavy Thunderstorms and Rain
3:20 PM 59.0 °F 55.4 °F 88% 29.86 in 2.5 mi SW 4.6 mph - N/A Rain , Thunderstorm Thunderstorms and Rain
3:50 PM 57.2 °F 53.6 °F 88% 29.86 in 1.2 mi South 11.5 mph - N/A Rain , Thunderstorm Thunderstorms and Rain
4:20 PM 59.0 °F 55.4 °F 88% 29.89 in 3.7 mi South 9.2 mph - N/A Rain , Thunderstorm Light Thunderstorms and Rain
4:50 PM 57.2 °F 55.4 °F 94% 29.89 in 3.7 mi Variable 1.2 mph - N/A Rain , Thunderstorm Light Thunderstorms and Rain
5:20 PM 57.2 °F 55.4 °F 94% 29.89 in 3.7 mi WNW 4.6 mph - N/A Rain , Thunderstorm Light Thunderstorms and Rain
5:50 PM 57.2 °F 55.4 °F 94% 29.89 in 3.7 mi North 6.9 mph - N/A Rain , Thunderstorm Light Thunderstorms and Rain
6:20 PM 57.2 °F 55.4 °F 94% 29.89 in 3.7 mi North 5.8 mph - N/A Rain , Thunderstorm Light Thunderstorms and Rain
6:50 PM 55.4 °F 53.6 °F 94% 29.92 in 3.7 mi North 5.8 mph - N/A Rain , Thunderstorm Light Thunderstorms and Rain
7:20 PM 53.6 °F 53.6 °F 100% 29.92 in 2.5 mi North 8.1 mph - N/A   Mostly Cloudy
7:50 PM 55.4 °F 53.6 °F 94% 29.92 in 2.5 mi North 3.5 mph - N/A   Mostly Cloudy
8:00 PM 55 °F 54 °F 95% 29.91 in 2 mi North 3.5 mph - -   Mist
8:20 PM 55.4 °F 55.4 °F 100% 29.92 in 6.2 mi NNE 4.6 mph - N/A Rain Light Rain Showers
8:50 PM 55.4 °F 53.6 °F 94% 29.89 in 6.2 mi NNE 4.6 mph - N/A   Mostly Cloudy
9:20 PM 55.4 °F 53.6 °F 94% 29.89 in 6.2 mi North 8.1 mph - N/A Rain Light Rain Showers
9:50 PM 55.4 °F 53.6 °F 94% 29.92 in 6.2 mi NW 5.8 mph - N/A Rain Light Rain Showers
10:20 PM 53.6 °F 53.6 °F 100% 29.92 in 6.2 mi North 6.9 mph - N/A Rain Light Rain Showers
10:50 PM 53.6 °F 51.8 °F 94% 29.92 in 6.2 mi NNW 8.1 mph - N/A   Mostly Cloudy
11:20 PM 53.6 °F 51.8 °F 94% 29.92 in 6.2 mi NNW 6.9 mph - N/A   Scattered Clouds
11:50 PM 51.8 °F 51.8 °F 100% 29.92 in 6.2 mi NNW 6.9 mph - N/A   Scattered Clouds